Check out our new BloomSky Weather System.

Active alerts


No alerts


Thunder radar  blitzortung!


Rain radar more information rain snow radar


Visit our other weather sites:

Template documentation
and downloads

And another site



Weather Underground History page Text

Daily Summary for August 2, 2017 Units:  English    Metric   Both
« Previous Day
Next Day »
Daily Weekly Monthly Yearly Custom
  High: Low: Average:
Temperature: TemperatureF °F 74.8 °F 79.6 °F
Dew Point: DewpointF °F 73.9 °F 75.6 °F
Humidity: Humidity % 65 % 88 %
Wind Speed: WindSpeedMPH mph 0.0 mph 0.7 mph
Wind Gust: WindSpeedGustMPH mph - -
Wind:- - South
Pressure: PressureIn in 29.94 in -
Precipitation: 0.30 in    
Historical Graphs
 
 
Tabular Data for August 2, 2017
Time Temperature Dew Point Pressure Wind Wind Speed Wind Gust Humidity Rainfall Rate (Hourly)
TemperatureF °F DewpointF °F PressureIn in Calm     Humidity % HourlyPrecipIn in
00:00 81.3 °F 74.5 °F 29.97 in Calm   1.0 mph 80 % 0.00 in
00:05 81.3 °F 74.5 °F 29.97 in Calm   1.0 mph 80 % 0.00 in
00:10 81.1 °F 74.7 °F 29.97 in Calm   1.0 mph 81 % 0.00 in
00:15 81.0 °F 74.7 °F 29.97 in Calm   1.0 mph 81 % 0.00 in
00:20 81.0 °F 74.7 °F 29.97 in Calm   1.0 mph 81 % 0.00 in
00:25 81.0 °F 75.0 °F 29.96 in Calm   1.0 mph 82 % 0.00 in
00:30 81.0 °F 75.0 °F 29.96 in Calm   1.0 mph 82 % 0.00 in
00:35 81.0 °F 75.0 °F 29.96 in Calm   1.0 mph 82 % 0.00 in
00:36 81.0 °F 75.0 °F 29.96 in Calm   1.0 mph 82 % 0.00 in
00:41 81.0 °F 75.0 °F 29.96 in Calm   1.0 mph 82 % 0.00 in
00:46 80.8 °F 74.8 °F 29.96 in Calm   1.0 mph 82 % 0.00 in
00:51 80.8 °F 75.2 °F 29.96 in Calm   1.0 mph 83 % 0.00 in
00:56 80.8 °F 75.2 °F 29.96 in Calm   1.0 mph 83 % 0.00 in
01:01 80.8 °F 75.2 °F 29.96 in Calm   2.0 mph 83 % 0.00 in
01:06 80.6 °F 75.0 °F 29.96 in ENE 1.0 mph 2.0 mph 83 % 0.00 in
01:11 80.4 °F 75.2 °F 29.96 in Calm   2.0 mph 84 % 0.00 in
01:16 80.4 °F 75.2 °F 29.96 in North 2.0 mph 2.0 mph 84 % 0.00 in
01:21 80.4 °F 75.2 °F 29.96 in Calm   2.0 mph 84 % 0.00 in
01:26 80.2 °F 75.0 °F 29.96 in Calm   2.0 mph 84 % 0.00 in
01:31 80.1 °F 75.2 °F 29.96 in Calm   2.0 mph 85 % 0.00 in
01:36 79.9 °F 75.0 °F 29.96 in Calm   1.0 mph 85 % 0.00 in
01:41 79.9 °F 75.0 °F 29.96 in Calm     85 % 0.00 in
01:46 79.7 °F 75.2 °F 29.96 in Calm   1.0 mph 86 % 0.00 in
01:51 79.5 °F 75.0 °F 29.96 in Calm   1.0 mph 86 % 0.00 in
01:56 79.5 °F 75.0 °F 29.96 in Calm   1.0 mph 86 % 0.00 in
02:01 79.3 °F 74.8 °F 29.96 in Calm   1.0 mph 86 % 0.00 in
02:06 79.3 °F 75.2 °F 29.95 in Calm   1.0 mph 87 % 0.00 in
02:11 79.3 °F 75.2 °F 29.95 in Calm   1.0 mph 87 % 0.00 in
02:16 79.3 °F 75.2 °F 29.95 in Calm   1.0 mph 87 % 0.00 in
02:21 79.2 °F 75.4 °F 29.95 in Calm   1.0 mph 88 % 0.00 in
02:26 79.2 °F 75.0 °F 29.95 in Calm   1.0 mph 87 % 0.00 in
02:31 79.0 °F 75.2 °F 29.96 in Calm   1.0 mph 88 % 0.00 in
02:40 78.8 °F 75.0 °F 29.95 in Calm   1.0 mph 88 % 0.00 in
02:45 78.6 °F 74.8 °F 29.96 in Calm   1.0 mph 88 % 0.00 in
02:47 78.4 °F 74.8 °F 29.96 in Calm   1.0 mph 89 % 0.00 in
02:52 78.4 °F 74.8 °F 29.96 in Calm     89 % 0.00 in
02:57 78.4 °F 74.8 °F 29.96 in Calm     89 % 0.00 in
03:02 78.3 °F 75.0 °F 29.96 in Calm     90 % 0.00 in
03:07 78.4 °F 75.2 °F 29.96 in Calm   1.0 mph 90 % 0.00 in
03:12 78.4 °F 75.2 °F 29.95 in Calm   1.0 mph 90 % 0.00 in
03:17 78.4 °F 75.2 °F 29.95 in East 1.0 mph 1.0 mph 90 % 0.00 in
03:22 78.4 °F 75.6 °F 29.95 in Calm   1.0 mph 91 % 0.00 in
03:27 78.4 °F 75.6 °F 29.95 in Calm   1.0 mph 91 % 0.00 in
03:32 78.6 °F 75.7 °F 29.95 in Calm   1.0 mph 91 % 0.00 in
03:37 78.6 °F 75.7 °F 29.95 in ESE 1.0 mph 1.0 mph 91 % 0.00 in
03:42 78.6 °F 75.7 °F 29.95 in Calm   1.0 mph 91 % 0.00 in
03:47 78.6 °F 75.7 °F 29.95 in Calm   1.0 mph 91 % 0.00 in
03:52 78.4 °F 75.6 °F 29.95 in Calm   1.0 mph 91 % 0.00 in
03:57 78.4 °F 75.6 °F 29.95 in Calm   1.0 mph 91 % 0.00 in
04:03 78.3 °F 75.4 °F 29.95 in Calm     91 % 0.00 in
04:08 78.3 °F 75.7 °F 29.95 in Calm     92 % 0.00 in
04:13 78.1 °F 75.6 °F 29.95 in Calm     92 % 0.00 in
04:18 77.9 °F 75.4 °F 29.95 in Calm     92 % 0.00 in
04:23 77.9 °F 75.4 °F 29.95 in ESE 1.0 mph   92 % 0.00 in
04:28 77.9 °F 75.4 °F 29.95 in Calm   1.0 mph 92 % 0.00 in
04:33 77.7 °F 75.2 °F 29.95 in Calm   1.0 mph 92 % 0.00 in
04:38 77.5 °F 75.0 °F 29.95 in Calm   1.0 mph 92 % 0.00 in
04:43 77.5 °F 75.4 °F 29.95 in Calm     93 % 0.00 in
04:48 77.5 °F 75.4 °F 29.95 in Calm     93 % 0.00 in
04:53 77.4 °F 75.2 °F 29.95 in Calm     93 % 0.00 in
04:58 77.5 °F 75.4 °F 29.95 in Calm     93 % 0.00 in
05:03 77.5 °F 75.4 °F 29.95 in Calm   1.0 mph 93 % 0.00 in
05:08 77.5 °F 75.4 °F 29.95 in Calm   1.0 mph 93 % 0.00 in
05:13 77.5 °F 75.4 °F 29.95 in Calm   1.0 mph 93 % 0.00 in
05:18 77.5 °F 75.7 °F 29.95 in Calm   1.0 mph 94 % 0.00 in
05:24 77.5 °F 75.7 °F 29.95 in Calm     94 % 0.00 in
05:29 77.5 °F 75.7 °F 29.95 in Calm   1.0 mph 94 % 0.00 in
05:34 77.5 °F 75.7 °F 29.95 in Calm   1.0 mph 94 % 0.00 in
05:39 77.5 °F 75.7 °F 29.95 in Calm   1.0 mph 94 % 0.00 in
05:44 77.5 °F 75.7 °F 29.95 in Calm   1.0 mph 94 % 0.00 in
05:49 77.5 °F 75.7 °F 29.95 in Calm   1.0 mph 94 % 0.00 in
05:54 77.5 °F 75.7 °F 29.95 in Calm   1.0 mph 94 % 0.00 in
05:59 77.5 °F 75.7 °F 29.95 in Calm   1.0 mph 94 % 0.00 in
06:04 77.5 °F 75.7 °F 29.95 in Calm   1.0 mph 94 % 0.00 in
06:09 77.5 °F 75.7 °F 29.95 in Calm   1.0 mph 94 % 0.00 in
06:14 77.5 °F 75.7 °F 29.95 in Calm   1.0 mph 94 % 0.00 in
06:19 77.4 °F 75.6 °F 29.95 in Calm   1.0 mph 94 % 0.00 in
06:24 77.4 °F 75.6 °F 29.96 in Calm   1.0 mph 94 % 0.00 in
06:29 77.4 °F 75.6 °F 29.95 in Calm     94 % 0.00 in
06:34 77.4 °F 75.6 °F 29.96 in Calm   1.0 mph 94 % 0.00 in
06:39 77.4 °F 75.6 °F 29.96 in Calm   1.0 mph 94 % 0.00 in
06:44 77.4 °F 75.7 °F 29.96 in Calm   1.0 mph 95 % 0.00 in
06:49 77.4 °F 75.6 °F 29.96 in Calm   1.0 mph 94 % 0.00 in
06:54 77.4 °F 75.6 °F 29.96 in Calm   1.0 mph 94 % 0.00 in
06:59 77.4 °F 75.6 °F 29.96 in Calm   1.0 mph 94 % 0.00 in
07:04 77.4 °F 75.6 °F 29.96 in Calm   1.0 mph 94 % 0.00 in
07:09 77.4 °F 75.6 °F 29.96 in Calm   1.0 mph 94 % 0.00 in
07:14 77.4 °F 75.6 °F 29.96 in WNW 1.0 mph 1.0 mph 94 % 0.00 in
07:19 77.4 °F 75.6 °F 29.96 in NW 1.0 mph 1.0 mph 94 % 0.00 in
07:24 77.4 °F 75.6 °F 29.96 in NW 1.0 mph 2.0 mph 94 % 0.00 in
07:29 77.4 °F 75.6 °F 29.96 in NW 1.0 mph 2.0 mph 94 % 0.00 in
07:34 77.4 °F 75.6 °F 29.96 in Calm   2.0 mph 94 % 0.00 in
07:39 77.5 °F 75.7 °F 29.96 in Calm   2.0 mph 94 % 0.00 in
07:44 77.9 °F 76.1 °F 29.96 in Calm   2.0 mph 94 % 0.00 in
07:49 78.3 °F 76.5 °F 29.96 in NW 1.0 mph 2.0 mph 94 % 0.00 in
07:55 78.6 °F 76.5 °F 29.97 in Calm   2.0 mph 93 % 0.00 in
08:00 79.0 °F 76.8 °F 29.97 in Calm   2.0 mph 93 % 0.00 in
08:05 79.3 °F 77.2 °F 29.97 in Calm   2.0 mph 93 % 0.00 in
08:10 80.1 °F 77.2 °F 29.97 in Calm   2.0 mph 91 % 0.00 in
08:15 80.4 °F 77.2 °F 29.97 in Calm   2.0 mph 90 % 0.00 in
08:20 81.1 °F 77.5 °F 29.97 in Calm   2.0 mph 89 % 0.00 in
08:25 81.9 °F 78.3 °F 29.97 in Calm   2.0 mph 89 % 0.00 in
08:30 82.9 °F 78.6 °F 29.97 in NE 1.0 mph 2.0 mph 87 % 0.00 in
08:35 83.5 °F 78.1 °F 29.97 in Calm   2.0 mph 84 % 0.00 in
08:40 83.8 °F 78.4 °F 29.97 in Calm   2.0 mph 84 % 0.00 in
08:45 84.6 °F 78.8 °F 29.97 in Calm   3.0 mph 83 % 0.00 in
08:47 84.7 °F 78.6 °F 29.97 in Calm   3.0 mph 82 % 0.00 in
08:52 85.3 °F 79.2 °F 29.97 in Calm   3.0 mph 82 % 0.00 in
08:57 85.6 °F 79.2 °F 29.97 in NNW 2.0 mph 3.0 mph 81 % 0.00 in
09:02 85.6 °F 78.8 °F 29.97 in Calm   4.0 mph 80 % 0.00 in
09:07 85.6 °F 79.2 °F 29.97 in Calm   4.0 mph 81 % 0.00 in
09:12 86.4 °F 79.0 °F 29.97 in NW 1.0 mph 4.0 mph 79 % 0.00 in
09:17 86.5 °F 79.2 °F 29.98 in North 1.0 mph 4.0 mph 79 % 0.00 in
09:22 86.5 °F 78.4 °F 29.98 in ENE 1.0 mph 5.0 mph 77 % 0.00 in
09:27 86.7 °F 79.3 °F 29.98 in North 1.0 mph 5.0 mph 79 % 0.00 in
09:32 87.3 °F 79.5 °F 29.97 in ENE 1.0 mph 5.0 mph 78 % 0.00 in
09:37 87.6 °F 79.2 °F 29.97 in Calm   5.0 mph 76 % 0.00 in
09:42 88.0 °F 79.5 °F 29.97 in ENE 1.0 mph 4.0 mph 76 % 0.00 in
09:47 88.2 °F 78.8 °F 29.98 in ENE 1.0 mph 4.0 mph 74 % 0.00 in
09:52 88.3 °F 78.6 °F 29.98 in WNW 1.0 mph 4.0 mph 73 % 0.00 in
09:57 88.5 °F 79.2 °F 29.98 in WNW 2.0 mph 2.0 mph 74 % 0.00 in
10:02 88.2 °F 78.8 °F 29.98 in Calm   4.0 mph 74 % 0.00 in
10:07 88.0 °F 78.6 °F 29.98 in NW 2.0 mph 4.0 mph 74 % 0.00 in
10:12 87.6 °F 79.2 °F 29.98 in NNW 3.0 mph 5.0 mph 76 % 0.00 in
10:17 87.8 °F 77.7 °F 29.98 in NNW 1.0 mph 5.0 mph 72 % 0.00 in
10:22 88.2 °F 77.9 °F 29.98 in NW 2.0 mph 5.0 mph 72 % 0.00 in
10:27 87.6 °F 78.3 °F 29.98 in NNW 3.0 mph 6.0 mph 74 % 0.00 in
10:32 87.1 °F 78.3 °F 29.98 in NNW 1.0 mph 6.0 mph 75 % 0.00 in
10:37 86.7 °F 77.9 °F 29.97 in NW 2.0 mph 6.0 mph 75 % 0.00 in
10:42 86.4 °F 77.9 °F 29.98 in NNW 4.0 mph 5.0 mph 76 % 0.00 in
10:47 86.2 °F 77.4 °F 29.97 in NNW 1.0 mph 5.0 mph 75 % 0.00 in
10:52 86.2 °F 77.7 °F 29.97 in NNW 1.0 mph 4.0 mph 76 % 0.00 in
10:57 86.4 °F 77.9 °F 29.97 in NNW 3.0 mph 4.0 mph 76 % 0.00 in
11:02 86.5 °F 78.1 °F 29.97 in NNE 1.0 mph 4.0 mph 76 % 0.00 in
11:07 86.7 °F 77.9 °F 29.97 in NE 1.0 mph 4.0 mph 75 % 0.00 in
11:12 86.7 °F 77.9 °F 29.97 in NNW 1.0 mph 4.0 mph 75 % 0.00 in
11:17 86.5 °F 77.2 °F 29.97 in NW 2.0 mph 4.0 mph 74 % 0.00 in
11:22 86.5 °F 77.2 °F 29.97 in NNW 1.0 mph 4.0 mph 74 % 0.00 in
11:27 86.9 °F 77.2 °F 29.97 in NW 1.0 mph 5.0 mph 73 % 0.00 in
11:32 87.6 °F 77.5 °F 29.96 in NE 3.0 mph 5.0 mph 72 % 0.00 in
11:37 88.9 °F 78.3 °F 29.96 in NW 5.0 mph 5.0 mph 71 % 0.00 in
11:42 89.4 °F 77.9 °F 29.96 in SE 3.0 mph 5.0 mph 69 % 0.00 in
11:47 89.8 °F 77.7 °F 29.96 in NE 5.0 mph 7.0 mph 68 % 0.00 in
11:52 90.1 °F 78.6 °F 29.96 in NW 2.0 mph 7.0 mph 69 % 0.00 in
11:57 90.7 °F 77.4 °F 29.96 in NNW 3.0 mph 7.0 mph 65 % 0.00 in
12:02 91.0 °F 77.5 °F 29.96 in North 3.0 mph 6.0 mph 65 % 0.00 in
12:07 90.7 °F 77.7 °F 29.96 in Calm   8.0 mph 66 % 0.00 in
12:12 90.1 °F 77.2 °F 29.96 in NNW 5.0 mph 8.0 mph 66 % 0.00 in
12:17 89.8 °F 76.8 °F 29.96 in SSE 1.0 mph 8.0 mph 66 % 0.00 in
12:22 89.2 °F 76.8 °F 29.95 in ENE 2.0 mph 7.0 mph 67 % 0.00 in
12:27 89.2 °F 77.4 °F 29.96 in NW 1.0 mph 5.0 mph 68 % 0.00 in
12:32 89.1 °F 77.2 °F 29.96 in NE 2.0 mph 7.0 mph 68 % 0.00 in
12:37 88.9 °F 77.0 °F 29.96 in West 5.0 mph 7.0 mph 68 % 0.00 in
12:42 87.3 °F 76.6 °F 29.97 in NNW 5.0 mph 12.0 mph 71 % 0.00 in
12:47 86.2 °F 76.5 °F 29.97 in North 4.0 mph 12.0 mph 73 % 0.00 in
12:52 85.6 °F 75.9 °F 29.97 in North 3.0 mph 12.0 mph 73 % 0.00 in
12:53 85.5 °F 76.3 °F 29.97 in NNW 1.0 mph 12.0 mph 74 % 0.00 in
12:58 85.5 °F 76.6 °F 29.97 in ENE 5.0 mph 10.0 mph 75 % 0.00 in
13:03 85.1 °F 76.6 °F 29.96 in ENE 3.0 mph 11.0 mph 76 % 0.00 in
13:08 85.1 °F 76.6 °F 29.96 in West 4.0 mph 11.0 mph 76 % 0.00 in
13:13 84.7 °F 76.6 °F 29.96 in NW 2.0 mph 11.0 mph 77 % 0.00 in
13:18 84.2 °F 75.7 °F 29.96 in ESE 4.0 mph 11.0 mph 76 % 0.00 in
13:23 84.4 °F 75.6 °F 29.96 in SW 2.0 mph 11.0 mph 75 % 0.00 in
13:28 84.4 °F 75.6 °F 29.97 in NE 3.0 mph 11.0 mph 75 % 0.00 in
13:33 83.7 °F 75.2 °F 29.96 in ENE 4.0 mph 11.0 mph 76 % 0.00 in
13:38 83.1 °F 74.8 °F 29.97 in WSW 3.0 mph 14.0 mph 76 % 0.00 in
13:43 82.6 °F 75.4 °F 29.97 in ENE 4.0 mph 14.0 mph 79 % 0.00 in
13:48 82.2 °F 76.1 °F 29.98 in Calm   14.0 mph 82 % 0.00 in
13:53 81.5 °F 76.3 °F 29.98 in NW 1.0 mph 7.0 mph 84 % 0.03 in
13:58 80.8 °F 76.3 °F 29.98 in NNE 2.0 mph 7.0 mph 86 % 0.07 in
14:03 80.1 °F 76.1 °F 29.98 in Calm   6.0 mph 88 % 0.10 in
14:08 79.3 °F 75.7 °F 29.98 in NNW 1.0 mph 6.0 mph 89 % 0.12 in
14:13 78.8 °F 75.6 °F 29.99 in Calm   4.0 mph 90 % 0.14 in
14:19 78.3 °F 75.0 °F 29.99 in Calm   4.0 mph 90 % 0.15 in
14:24 78.1 °F 75.2 °F 29.99 in Calm   4.0 mph 91 % 0.16 in
14:29 78.1 °F 75.6 °F 29.99 in Calm   3.0 mph 92 % 0.17 in
14:34 78.3 °F 75.7 °F 29.99 in ESE 1.0 mph 1.0 mph 92 % 0.18 in
14:39 78.4 °F 75.9 °F 29.99 in SE 1.0 mph 2.0 mph 92 % 0.19 in
14:44 78.4 °F 75.9 °F 29.98 in Calm   2.0 mph 92 % 0.19 in
14:49 78.6 °F 76.5 °F 29.98 in East 1.0 mph 2.0 mph 93 % 0.20 in
14:54 79.0 °F 76.8 °F 29.97 in Calm   3.0 mph 93 % 0.16 in
14:59 79.2 °F 77.0 °F 29.97 in ENE 2.0 mph 3.0 mph 93 % 0.13 in
15:04 79.3 °F 77.2 °F 29.97 in Calm   4.0 mph 93 % 0.10 in
15:09 79.2 °F 76.6 °F 29.97 in Calm   4.0 mph 92 % 0.08 in
15:14 79.2 °F 77.0 °F 29.97 in NNW 3.0 mph 6.0 mph 93 % 0.07 in
15:19 79.3 °F 77.2 °F 29.97 in ENE 3.0 mph 6.0 mph 93 % 0.06 in
15:24 79.3 °F 77.2 °F 29.97 in ESE 2.0 mph 6.0 mph 93 % 0.05 in
15:29 79.3 °F 77.2 °F 29.97 in NE 1.0 mph 6.0 mph 93 % 0.04 in
15:34 79.2 °F 77.0 °F 29.97 in ENE 7.0 mph 7.0 mph 93 % 0.03 in
15:40 79.0 °F 76.8 °F 29.97 in ESE 2.0 mph 8.0 mph 93 % 0.02 in
15:45 79.2 °F 77.0 °F 29.97 in SE 3.0 mph 8.0 mph 93 % 0.02 in
15:50 79.0 °F 76.8 °F 29.97 in East 4.0 mph 7.0 mph 93 % 0.01 in
15:55 78.6 °F 76.1 °F 29.98 in NNE 2.0 mph 7.0 mph 92 % 0.01 in
16:00 78.4 °F 75.9 °F 29.98 in ENE 2.0 mph 6.0 mph 92 % 0.01 in
16:05 78.3 °F 75.7 °F 29.98 in NNE 3.0 mph 6.0 mph 92 % 0.01 in
16:10 78.3 °F 75.7 °F 29.98 in Calm   6.0 mph 92 % 0.00 in
16:15 78.1 °F 75.6 °F 29.97 in Calm   6.0 mph 92 % 0.00 in
16:20 78.1 °F 75.6 °F 29.98 in ESE 1.0 mph 5.0 mph 92 % 0.00 in
16:25 77.5 °F 75.0 °F 29.98 in North 1.0 mph 5.0 mph 92 % 0.00 in
16:30 77.4 °F 74.8 °F 29.98 in Calm   5.0 mph 92 % 0.00 in
16:35 77.4 °F 74.8 °F 29.98 in Calm   5.0 mph 92 % 0.00 in
16:40 77.4 °F 75.2 °F 29.98 in ESE 1.0 mph 5.0 mph 93 % 0.01 in
16:46 77.5 °F 75.4 °F 29.98 in Calm   5.0 mph 93 % 0.02 in
16:51 77.5 °F 75.4 °F 29.98 in ESE 1.0 mph 5.0 mph 93 % 0.02 in
16:56 77.2 °F 75.0 °F 29.98 in SE 3.0 mph 5.0 mph 93 % 0.03 in
17:01 76.8 °F 74.7 °F 29.98 in Calm   5.0 mph 93 % 0.04 in
17:06 76.8 °F 74.7 °F 29.97 in Calm   5.0 mph 93 % 0.05 in
17:11 76.8 °F 75.0 °F 29.97 in Calm   5.0 mph 94 % 0.06 in
17:16 76.8 °F 75.0 °F 29.97 in ENE 2.0 mph 4.0 mph 94 % 0.07 in
17:21 76.8 °F 75.0 °F 29.97 in East 4.0 mph 4.0 mph 94 % 0.07 in
17:26 76.8 °F 75.0 °F 29.97 in ESE 1.0 mph 4.0 mph 94 % 0.07 in
17:31 76.8 °F 75.0 °F 29.96 in North 2.0 mph 6.0 mph 94 % 0.07 in
17:36 76.8 °F 75.0 °F 29.96 in Calm   6.0 mph 94 % 0.07 in
17:41 76.8 °F 75.0 °F 29.96 in East 1.0 mph 6.0 mph 94 % 0.06 in
17:46 77.2 °F 75.4 °F 29.96 in NW 2.0 mph 5.0 mph 94 % 0.05 in
17:51 77.2 °F 75.4 °F 29.96 in Calm   5.0 mph 94 % 0.04 in
17:56 77.2 °F 75.4 °F 29.96 in Calm   3.0 mph 94 % 0.04 in
18:01 77.2 °F 75.4 °F 29.96 in Calm   3.0 mph 94 % 0.03 in
18:06 77.4 °F 75.6 °F 29.96 in ESE 1.0 mph 3.0 mph 94 % 0.02 in
18:11 77.2 °F 75.4 °F 29.95 in ESE 1.0 mph 3.0 mph 94 % 0.01 in
18:16 77.2 °F 75.0 °F 29.95 in Calm   3.0 mph 93 % 0.00 in
18:21 77.2 °F 75.0 °F 29.95 in ESE 1.0 mph 3.0 mph 93 % 0.00 in
18:26 77.2 °F 75.0 °F 29.95 in SE 3.0 mph 3.0 mph 93 % 0.00 in
18:31 77.2 °F 75.0 °F 29.95 in Calm   3.0 mph 93 % 0.00 in
18:36 77.2 °F 75.0 °F 29.95 in Calm   3.0 mph 93 % 0.00 in
18:41 77.4 °F 75.2 °F 29.95 in Calm   3.0 mph 93 % 0.00 in
18:46 77.4 °F 75.2 °F 29.95 in Calm   2.0 mph 93 % 0.00 in
18:51 77.4 °F 75.2 °F 29.95 in Calm   1.0 mph 93 % 0.00 in
18:56 77.4 °F 75.2 °F 29.95 in Calm   1.0 mph 93 % 0.00 in
19:01 77.4 °F 75.2 °F 29.96 in Calm   1.0 mph 93 % 0.00 in
19:06 77.2 °F 75.0 °F 29.95 in Calm   1.0 mph 93 % 0.00 in
19:11 77.2 °F 75.0 °F 29.95 in SE 1.0 mph 1.0 mph 93 % 0.00 in
19:16 77.2 °F 75.0 °F 29.95 in Calm   2.0 mph 93 % 0.00 in
19:21 77.2 °F 75.0 °F 29.95 in Calm   2.0 mph 93 % 0.00 in
19:27 77.2 °F 75.0 °F 29.95 in Calm   2.0 mph 93 % 0.00 in
19:32 77.2 °F 75.0 °F 29.95 in Calm   1.0 mph 93 % 0.00 in
19:37 77.2 °F 75.0 °F 29.95 in Calm   1.0 mph 93 % 0.00 in
19:42 77.2 °F 75.0 °F 29.95 in Calm   2.0 mph 93 % 0.00 in
19:47 77.2 °F 75.4 °F 29.95 in Calm   2.0 mph 94 % 0.00 in
19:52 77.2 °F 75.4 °F 29.95 in Calm   2.0 mph 94 % 0.00 in
19:57 77.0 °F 75.2 °F 29.95 in Calm   1.0 mph 94 % 0.00 in
20:02 77.0 °F 75.2 °F 29.95 in Calm   1.0 mph 94 % 0.00 in
20:07 77.0 °F 75.2 °F 29.95 in Calm   1.0 mph 94 % 0.01 in
20:12 76.8 °F 75.2 °F 29.94 in Calm   2.0 mph 95 % 0.01 in
20:17 76.8 °F 75.2 °F 29.94 in Calm   2.0 mph 95 % 0.01 in
20:22 76.6 °F 75.0 °F 29.94 in Calm   2.0 mph 95 % 0.01 in
20:27 76.6 °F 75.0 °F 29.94 in Calm   1.0 mph 95 % 0.01 in
20:32 76.6 °F 75.0 °F 29.95 in Calm   1.0 mph 95 % 0.01 in
20:37 76.5 °F 74.8 °F 29.95 in Calm   1.0 mph 95 % 0.01 in
20:42 76.5 °F 74.8 °F 29.95 in Calm   1.0 mph 95 % 0.01 in
20:47 76.5 °F 74.8 °F 29.96 in Calm   1.0 mph 95 % 0.01 in
20:48 76.3 °F 74.7 °F 29.96 in Calm   1.0 mph 95 % 0.01 in
20:53 76.3 °F 74.7 °F 29.96 in Calm   1.0 mph 95 % 0.01 in
20:58 76.3 °F 74.7 °F 29.96 in Calm   1.0 mph 95 % 0.01 in
21:03 76.3 °F 75.0 °F 29.96 in Calm   2.0 mph 96 % 0.01 in
21:08 76.3 °F 74.7 °F 29.96 in Calm   2.0 mph 95 % 0.00 in
21:13 76.3 °F 75.0 °F 29.96 in Calm   2.0 mph 96 % 0.00 in
21:18 76.3 °F 75.0 °F 29.96 in Calm   2.0 mph 96 % 0.00 in
21:23 76.3 °F 75.0 °F 29.96 in ENE 1.0 mph 2.0 mph 96 % 0.00 in
21:28 76.3 °F 75.0 °F 29.96 in Calm   2.0 mph 96 % 0.00 in
21:33 76.3 °F 75.0 °F 29.97 in Calm   2.0 mph 96 % 0.00 in
21:38 76.3 °F 75.0 °F 29.97 in Calm   2.0 mph 96 % 0.00 in
21:43 76.3 °F 75.0 °F 29.97 in Calm   2.0 mph 96 % 0.00 in
21:48 76.3 °F 75.0 °F 29.97 in Calm   1.0 mph 96 % 0.00 in
21:53 76.1 °F 74.8 °F 29.97 in Calm   1.0 mph 96 % 0.00 in
21:58 75.9 °F 74.7 °F 29.97 in Calm   1.0 mph 96 % 0.00 in
22:04 75.9 °F 74.7 °F 29.97 in Calm   1.0 mph 96 % 0.01 in
22:09 75.7 °F 74.5 °F 29.97 in NNW 1.0 mph 1.0 mph 96 % 0.01 in
22:10 75.7 °F 74.5 °F 29.98 in Calm   1.0 mph 96 % 0.01 in
22:15 75.7 °F 74.5 °F 29.98 in Calm   2.0 mph 96 % 0.01 in
22:20 75.7 °F 74.8 °F 29.98 in NNW 1.0 mph 2.0 mph 97 % 0.01 in
22:22 75.7 °F 74.8 °F 29.98 in Calm   2.0 mph 97 % 0.01 in
22:25 75.7 °F 74.8 °F 29.98 in North 2.0 mph 2.0 mph 97 % 0.01 in
22:27 75.7 °F 74.5 °F 29.98 in Calm   2.0 mph 96 % 0.01 in
22:28 75.7 °F 74.5 °F 29.98 in Calm   2.0 mph 96 % 0.01 in
22:30 75.7 °F 74.8 °F 29.98 in Calm   2.0 mph 97 % 0.01 in
22:32 75.7 °F 74.8 °F 29.98 in Calm   2.0 mph 97 % 0.01 in
22:37 75.6 °F 74.3 °F 29.98 in Calm   2.0 mph 96 % 0.01 in
22:42 75.6 °F 74.3 °F 29.98 in Calm   2.0 mph 96 % 0.01 in
22:47 75.4 °F 74.5 °F 29.98 in Calm   1.0 mph 97 % 0.01 in
22:52 75.4 °F 74.5 °F 29.98 in Calm   1.0 mph 97 % 0.01 in
22:57 75.4 °F 74.5 °F 29.98 in Calm   2.0 mph 97 % 0.01 in
23:02 75.4 °F 74.5 °F 29.98 in Calm   2.0 mph 97 % 0.00 in
23:07 75.4 °F 74.5 °F 29.99 in East 1.0 mph 2.0 mph 97 % 0.00 in
23:12 75.4 °F 74.5 °F 29.98 in Calm   2.0 mph 97 % 0.00 in
23:17 75.4 °F 74.5 °F 29.98 in Calm   2.0 mph 97 % 0.00 in
23:22 75.2 °F 74.3 °F 29.99 in NNE 1.0 mph 4.0 mph 97 % 0.00 in
23:27 75.0 °F 74.1 °F 29.99 in Calm   4.0 mph 97 % 0.00 in
23:32 75.0 °F 74.1 °F 29.99 in Calm   4.0 mph 97 % 0.00 in
23:37 74.8 °F 73.9 °F 29.99 in Calm   4.0 mph 97 % 0.00 in
23:42 75.0 °F 74.1 °F 29.99 in Calm   4.0 mph 97 % 0.00 in
23:47 75.0 °F 74.1 °F 29.99 in Calm   4.0 mph 97 % 0.00 in
23:52 75.0 °F 74.1 °F 30.00 in Calm   4.0 mph 97 % 0.00 in
23:57 75.0 °F 74.1 °F 30.00 in Calm   1.0 mph 97 % 0.00 in
Spring, Texas: Villages of Bridgestone
Compliments of Weather Underground - 2.75 mb

Script developed by  Jim McMurry - jmcmurry@mwt.net Adapted for the template by  Wim van der Kuil - Leuven-Template.eu

You find our weather info also at:

UK Metoffice

WeatherCloud

Weather Underground

Mid-South Weather Network

AWEKAS

Citizen Weather Observer Program (CWOP)

HAMweather, WeatherForYou, PWS Weather

Equipment we use:

Weather-station
Davis Vantage Vue

Weather-program
Meteohub

Weather-server
Debian 7.9 x86 (Guest)

Provider
DreamHost

Davis Vantage Vue

Meteohub

Debian 7.9 x86 (Guest)

DreamHost